Starlink 30710

operational
NORAD ID: 57938 Int'l Des: 2023-148 Owner: SPXS Country: US Constellation: starlink
LEOCIRCULAR

Über Starlink 30710

Beschreibung wird geladen...

Live-Position

3D-Globus wird geladen...

Nächste Überflüge

Höhenverlauf

Altitude vs Time

uPlot chart will show altitude changes over time

Zweizeiliger Elementsatz

1 57938U 23148D 25304.16090968 .00000187 00000-0 18425-4 0 9993
2 57938 53.1610 255.8696 0001148 85.8349 274.2783 15.30193719118723
Epoch: 31. Okt. 2025 • Age: 14 hours

Aktueller Status

Höhe 479.7 km
Geschwindigkeit 7.63 km/s
Subsatellitenpunkt 47.22°N, 7.45°W
Startdatum 25. Sept. 2023
Alter 2 years
Typ internet

Technische Details

Klassifizierung Payload
Masse 730.00 kg
Trockenmasse 700.00 kg
Gesamtmasse 730.00 kg
Länge 0.30 m
Durchmesser 4.10 m
Spannweite 29.00 m
Form Box + pan
Hersteller SPXS
Bus-Typ Starlink V2M
Phasenstatus In Orbit
Besitzer/Staat SPXS/US

Große Konstellationen

Loading constellations...